Weather in Yeltsovka

Russia / Altai Krai     53°03′34″N   85°07′58″E
temp.,
°C
wind,
m/s
gust,
m/s
humid.,
%
clouds,
%
prec.,
mm/h
press.,
hPa
HPBL,
m
29 july, thu
thu2901:00+15w1160100 0.0 101011
04:00+15n115883 0.0 100911
07:00+15ene116697 0.0 101015
10:00+18se115591 0.0 1010365
13:00+22sse11418 0.0 10091848
16:00+23wnw223633 0.0 10082203
19:00+22wsw2250100 0.0 1007163
22:00+17n1152100 0.0 100711
30 july, fri
fri3001:00+15ene225870 0.0 100820
04:00+13ene235988 0.0 100818
07:00+14ne3463100 0.0 100974
10:00+20nne2348100 0.0 1009479
13:00+22nw2342100 0.0 10101282
16:00+24w3338100 0.0 10112059
19:00+20nnw6105441 0.0 1012353
22:00+17n486442 0.0 1014219
31 july, sat
sat3101:00+14nne33855 0.0 101536
04:00+12nne22874 0.0 101622
07:00+14ne22800 0.0 101655
10:00+20se34571 0.0 1015559
13:00+24sse32454 0.0 10141658
16:00+25sw2137100 0.0 10132123
19:00+24wsw224884 0.0 1012580
22:00+19w1152100 0.0 101211
1 august, sun
sun101:00+17n1157100 0.0 101211
04:00+17se1155100 0.0 101211
07:00+17e1161100 0.0 101213
10:00+21ssw225290 0.0 1012308
13:00+24w1241100 0.0 10111614
16:00+26wsw12365 0.0 10101977
19:00+25sw22455 0.0 1010459
22:00+18se33601 0.0 101035
2 august, mon
mon201:00+16se46700 0.0 100971
04:00+15se34740 0.0 100850
07:00+16se36750 0.0 1008109
10:00+22se455315 0.0 1007428
13:00+26sse333960 0.0 10071150
16:00+28s33345 0.0 10061660
19:00+27se33447 0.0 1005338
22:00+20sse34585 0.0 100650